[[{"header":{"parameterUnit":"m.s-1","parameterCategory":2,"la1":30.2991,"la2":30.254,"lo1":-89.0895,"lo2":-89.0444,"dy":0.0017,"dx":0.0017,"nx":28,"ny":28,"refTime":"2025-01-15T09:00:00:Z","depth":"0","parameterNumber":2,"parameterNumberName":"U-component_of_CURRENTS"},"data":[0,0,0,0,0,0,0,0,0,0,0,0,0,0,0,0,0,0,0,0,0,0,0,0,0,0,0,0,0,0,0,0,0,0,0,0,0,0,0,0,0,0,0,0,0,0,0,0,0,0,0,0,0,0,0,0,0,0,-0.2923,-0.2924,0,-0.3008,-0.3008,-0.3009,-0.2983,-0.2981,-0.298,-0.2979,-0.2923,-0.2923,-0.2923,0,0,0,0,0,0,0,0,0,0,0,0,0,-0.2654,-0.2659,-0.2923,-0.2925,-0.2926,-0.3007,-0.3008,-0.3009,-0.2983,-0.2981,-0.298,-0.2978,-0.2923,-0.2923,-0.2923,0,0,0,0,0,0,0,0,0,0,0,0,0,-0.2753,-0.266,-0.2923,-0.2927,-0.2928,-0.3007,-0.3008,-0.3009,-0.2983,-0.2981,-0.2979,-0.2977,-0.2924,-0.2923,-0.2923,-0.2961,0,0,-0.2922,-0.2922,0,0,0,0,0,0,0,0,-0.2748,-0.2762,-0.2925,-0.2927,-0.2928,-0.2987,-0.2893,-0.2988,-0.2984,-0.2957,-0.2979,-0.2976,-0.2936,-0.2935,-0.295,-0.2958,-0.2956,-0.2922,-0.2922,-0.2921,-0.2921,0,0,0,0,0,0,0,-0.2741,-0.2758,-0.2951,-0.2926,-0.2929,-0.2895,-0.2907,-0.2911,-0.295,-0.2959,-0.2959,-0.2977,-0.2935,-0.2951,-0.2948,-0.2955,-0.2922,-0.2921,-0.2921,-0.2921,-0.2995,-0.2997,0,0,0,0,0,0,-0.2748,-0.2753,-0.2949,-0.2955,-0.2837,-0.2902,-0.2915,-0.2966,-0.2953,-0.2952,-0.2978,-0.2975,-0.2952,-0.2949,-0.2946,-0.2973,-0.2921,-0.2921,-0.2921,-0.2993,-0.2996,-0.2998,0,0,0,0,0,0,-0.2743,-0.2766,-0.2946,-0.2856,-0.2877,-0.291,-0.2966,-0.2969,-0.2983,-0.297,-0.2965,-0.299,-0.2951,-0.2947,-0.2956,-0.2971,-0.2921,-0.2921,-0.299,-0.2994,-0.2997,-0.3037,0,0,0,0,0,0,-0.2735,-0.2765,-0.2806,-0.2859,-0.2883,-0.3003,-0.2969,-0.2972,-0.3,-0.2996,-0.2979,-0.2972,-0.2949,-0.2957,-0.2956,-0.2969,-0.292,-0.2988,-0.2992,-0.2996,-0.3033,-0.3042,-0.3049,0,0,0,0,0,-0.2726,-0.2795,-0.2808,-0.2832,-0.294,-0.3006,-0.3015,-0.3025,-0.3002,-0.3025,-0.3008,-0.2972,-0.2982,-0.2959,-0.2957,-0.297,-0.2986,-0.2991,-0.2995,-0.303,-0.304,-0.3049,0,0,0,0,0,0,-0.2709,-0.2802,-0.2816,-0.2914,-0.2959,-0.3003,-0.303,-0.3034,-0.3043,-0.3029,-0.2999,-0.2993,-0.3009,-0.2997,-0.2972,-0.3009,-0.2979,-0.2984,-0.3006,-0.3016,-0.3023,-0.3016,-0.292,0,0,0,0,0,-0.2727,-0.2797,-0.2867,-0.2943,-0.2966,-0.2997,-0.3024,-0.3034,-0.3051,-0.3053,-0.3039,-0.303,-0.3033,-0.3027,-0.3032,-0.3051,-0.3005,-0.3063,-0.307,-0.3077,-0.3073,-0.3022,-0.3023,-0.3014,-0.3014,-0.3014,0,0,-0.2743,-0.2802,-0.2844,-0.2942,-0.2972,-0.3021,-0.3007,-0.3056,-0.3089,-0.3045,-0.307,-0.3058,-0.3048,-0.3068,-0.3074,-0.3053,-0.3057,-0.3083,-0.3088,-0.3081,-0.3027,-0.3027,-0.3027,-0.3017,-0.3017,-0.3016,0,0,-0.2786,-0.2859,-0.2913,-0.2957,-0.3017,-0.3046,-0.3062,-0.3107,-0.3117,-0.3153,-0.3124,-0.3124,-0.3134,-0.3126,-0.3123,-0.3182,-0.3104,-0.3183,-0.3205,-0.3156,-0.3155,-0.3153,-0.3091,-0.3083,-0.3181,-0.3181,-0.3181,0,-0.279,-0.2871,-0.2937,-0.2987,-0.3009,-0.3056,-0.3087,-0.3136,-0.3175,-0.3167,-0.3166,-0.3159,-0.3164,-0.316,-0.3192,-0.3196,-0.3142,-0.3163,-0.3161,-0.3159,-0.3156,-0.3092,-0.3083,-0.3183,-0.3183,-0.3183,-0.3183,0,-0.2863,-0.2914,-0.2947,-0.3024,-0.307,-0.3106,-0.3171,-0.3206,-0.3216,-0.3233,-0.3234,-0.3238,-0.3217,-0.3235,-0.3237,-0.3227,-0.3186,-0.3175,-0.3125,-0.3158,-0.309,-0.308,-0.3187,-0.3186,-0.3185,-0.3185,0,0,-0.2865,-0.297,-0.2971,-0.2974,-0.3073,-0.3101,-0.3178,-0.322,-0.3219,-0.327,-0.325,-0.3292,-0.3264,-0.3262,-0.3252,-0.3232,-0.3193,-0.3202,-0.3198,-0.3118,-0.3056,-0.2962,-0.2941,-0.3163,-0.3162,-0.3161,-0.3012,0,-0.2868,-0.293,-0.2995,-0.3028,-0.3045,-0.3107,-0.3154,-0.3207,-0.3239,-0.325,-0.3266,-0.3254,-0.3285,-0.3253,-0.3249,-0.3208,-0.3169,-0.3233,-0.3055,-0.305,-0.2943,-0.2927,-0.2793,-0.2642,-0.3001,-0.3,-0.2998,0,-0.2879,-0.2914,-0.294,-0.2965,-0.2976,-0.3016,-0.3041,-0.3092,-0.3154,-0.3164,-0.3177,-0.3193,-0.32,-0.3212,-0.3146,-0.3175,-0.3123,-0.309,-0.3083,-0.297,-0.2936,-0.2671,-0.261,-0.2599,-0.2982,-0.2983,-0.2985,0,-0.2777,-0.2847,-0.2844,-0.2866,-0.294,-0.2944,-0.2979,-0.3045,-0.3052,-0.3102,-0.3087,-0.3112,-0.3084,-0.3061,-0.3046,-0.3074,-0.2947,-0.2969,-0.2826,-0.2818,-0.2657,-0.2637,-0.2542,-0.2893,-0.2893,-0.2893,-0.2894,0,-0.2716,-0.2698,-0.2792,-0.2787,-0.2762,-0.285,-0.2829,-0.2872,-0.2923,-0.2897,-0.3012,-0.2973,-0.304,-0.3004,-0.3,-0.2872,-0.2898,-0.2811,-0.2767,-0.267,-0.2653,-0.26,-0.2638,-0.2888,-0.2889,-0.289,-0.2891,0,-0.2565,-0.2637,-0.2625,-0.2696,-0.2708,-0.2684,-0.2731,-0.2711,-0.2782,-0.2756,-0.2764,-0.2839,-0.2787,-0.2832,-0.2774,-0.2761,-0.2623,-0.2626,-0.2509,-0.2455,-0.2325,-0.237,-0.2209,-0.2152,-0.2439,-0.2435,-0.2433,0,-0.2472,-0.2465,-0.2529,-0.2509,-0.2528,-0.253,-0.2516,-0.2612,-0.2598,-0.2644,-0.2596,-0.2598,-0.256,-0.2475,-0.246,-0.2401,-0.2437,-0.2233,-0.2282,-0.2277,-0.2296,-0.2338,-0.2306,-0.2083,-0.2078,-0.2073,-0.207,0,-0.2277,-0.2319,-0.2312,-0.2301,-0.2286,-0.2281,-0.2282,-0.2268,-0.2353,-0.2348,-0.2308,-0.23,-0.2258,-0.2165,-0.2128,-0.2088,-0.2174,-0.2137,-0.2152,-0.202,-0.2036,-0.1971,-0.2233,-0.203,-0.2034,-0.2037,-0.2039,-0.2041,-0.2095,-0.2053,-0.2068,-0.2034,-0.203,-0.2,-0.1956,-0.1982,-0.1949,-0.1933,-0.2005,-0.1965,-0.1951,-0.1888,-0.1847,-0.175,-0.1853,-0.1718,-0.1772,-0.1815,-0.1762,-0.1935,-0.1682,-0.1684,-0.1685,-0.1687,-0.1688,0,-0.1837,-0.1826,-0.1792,-0.1759,-0.1698,-0.1781,-0.1757,-0.1712,-0.1638,-0.1674,-0.1654,-0.1643,-0.1544,-0.1567,-0.1494,-0.143,-0.1428,-0.1411,-0.1453,-0.144,-0.1578,-0.1567,-0.1252,-0.1252,-0.1252,-0.1252,-0.1252,-0.1252,-0.1694,-0.158,-0.159,-0.1435,-0.1428,-0.133,-0.1305,-0.128,-0.1292,-0.1255,-0.1288,-0.1366,-0.1399,-0.1462,-0.1357,-0.1286,-0.1298,-0.1222,-0.1303,-0.1437,-0.1471,-0.1505,-0.1502,-0.1179,-0.1179,-0.1089,-0.1088,-0.1088]},{"header":{"parameterUnit":"m.s-1","parameterCategory":2,"la1":30.2991,"la2":30.254,"lo1":-89.0895,"lo2":-89.0444,"dy":0.0017,"dx":0.0017,"nx":28,"ny":28,"refTime":"2025-01-15T09:00:00:Z","depth":"0","parameterNumber":3,"parameterNumberName":"V-component_of_CURRENTS"},"data":[0,0,0,0,0,0,0,0,0,0,0,0,0,0,0,0,0,0,0,0,0,0,0,0,0,0,0,0,0,0,0,0,0,0,0,0,0,0,0,0,0,0,0,0,0,0,0,0,0,0,0,0,0,0,0,0,0,0,-0.0865,-0.0865,0,-0.0769,-0.0768,-0.0767,-0.0718,-0.0718,-0.0718,-0.0718,-0.0514,-0.0509,-0.0503,0,0,0,0,0,0,0,0,0,0,0,0,0,-0.0853,-0.0854,-0.0866,-0.0865,-0.0864,-0.0769,-0.0768,-0.0766,-0.0718,-0.0718,-0.0718,-0.0719,-0.0516,-0.0509,-0.0503,0,0,0,0,0,0,0,0,0,0,0,0,0,-0.0816,-0.0855,-0.0866,-0.0829,-0.0825,-0.077,-0.0768,-0.0766,-0.0718,-0.0718,-0.0718,-0.0719,-0.0518,-0.051,-0.0502,-0.0446,0,0,-0.0476,-0.0472,0,0,0,0,0,0,0,0,-0.0819,-0.0817,-0.0836,-0.0832,-0.0827,-0.0758,-0.0689,-0.0654,-0.0718,-0.0757,-0.0718,-0.0719,-0.0586,-0.0573,-0.0553,-0.0436,-0.0427,-0.0475,-0.047,-0.0467,-0.0464,0,0,0,0,0,0,0,-0.0821,-0.082,-0.0825,-0.0835,-0.0829,-0.0765,-0.0761,-0.0681,-0.0668,-0.0753,-0.075,-0.0742,-0.0583,-0.0561,-0.0547,-0.0424,-0.0476,-0.0468,-0.0463,-0.046,-0.0238,-0.0238,0,0,0,0,0,0,-0.0846,-0.0823,-0.0829,-0.0823,-0.0826,-0.0766,-0.0762,-0.0778,-0.0671,-0.0656,-0.0742,-0.074,-0.0575,-0.0557,-0.054,-0.0468,-0.0467,-0.0459,-0.0454,-0.0239,-0.0238,-0.0237,0,0,0,0,0,0,-0.0846,-0.0848,-0.0832,-0.082,-0.0814,-0.0767,-0.0785,-0.0776,-0.0755,-0.0664,-0.0647,-0.0731,-0.0575,-0.0552,-0.0461,-0.0459,-0.0455,-0.0448,-0.024,-0.0239,-0.0238,-0.0323,0,0,0,0,0,0,-0.0847,-0.0849,-0.0875,-0.0823,-0.0816,-0.0804,-0.0785,-0.0774,-0.0751,-0.0747,-0.0648,-0.063,-0.0573,-0.0474,-0.0453,-0.0448,-0.0441,-0.0241,-0.024,-0.0238,-0.0321,-0.0324,-0.0327,0,0,0,0,0,-0.0847,-0.0878,-0.0878,-0.0878,-0.0853,-0.0804,-0.0794,-0.0758,-0.075,-0.074,-0.0667,-0.0633,-0.045,-0.0466,-0.0442,-0.0434,-0.0242,-0.024,-0.0238,-0.0319,-0.0324,-0.0327,0,0,0,0,0,0,-0.0884,-0.0875,-0.0873,-0.0902,-0.086,-0.0797,-0.0787,-0.0761,-0.0698,-0.0691,-0.061,-0.0586,-0.0505,-0.0453,-0.0474,-0.0365,-0.0344,-0.0337,-0.0414,-0.0417,-0.0421,-0.0448,-0.0434,0,0,0,0,0,-0.0908,-0.0935,-0.0894,-0.0917,-0.0896,-0.0842,-0.0822,-0.0793,-0.073,-0.0705,-0.0634,-0.0555,-0.0477,-0.0437,-0.0356,-0.0292,-0.0247,-0.0273,-0.0277,-0.028,-0.0284,-0.0229,-0.0229,-0.0231,-0.0231,-0.0231,0,0,-0.0936,-0.0929,-0.0949,-0.0927,-0.089,-0.0856,-0.0829,-0.0796,-0.0772,-0.0687,-0.0628,-0.0553,-0.0459,-0.0388,-0.035,-0.0347,-0.025,-0.0277,-0.0281,-0.0284,-0.0227,-0.0227,-0.0227,-0.023,-0.023,-0.023,0,0,-0.0958,-0.0986,-0.0991,-0.0959,-0.091,-0.0876,-0.0869,-0.0801,-0.0778,-0.0707,-0.0644,-0.0574,-0.0453,-0.0397,-0.0351,-0.0321,-0.0263,-0.0294,-0.0339,-0.0285,-0.0286,-0.0285,-0.0217,-0.0209,-0.0305,-0.0305,-0.0305,0,-0.0981,-0.0992,-0.098,-0.0951,-0.0932,-0.0887,-0.086,-0.0828,-0.0742,-0.0722,-0.0697,-0.0538,-0.0461,-0.0387,-0.0378,-0.0331,-0.0285,-0.0338,-0.0293,-0.0292,-0.029,-0.022,-0.0211,-0.0309,-0.0309,-0.0308,-0.0308,0,-0.0983,-0.099,-0.0982,-0.0949,-0.0924,-0.0898,-0.085,-0.0821,-0.0788,-0.0754,-0.0677,-0.0577,-0.0492,-0.0457,-0.0403,-0.0353,-0.0317,-0.0301,-0.0295,-0.0296,-0.022,-0.021,-0.0315,-0.0313,-0.0312,-0.0311,0,0,-0.1031,-0.0993,-0.099,-0.0979,-0.0924,-0.0904,-0.0871,-0.0829,-0.0815,-0.0748,-0.072,-0.0603,-0.0571,-0.0516,-0.0449,-0.0402,-0.0342,-0.0354,-0.035,-0.0306,-0.0209,-0.016,-0.0143,-0.0324,-0.0323,-0.0322,-0.0159,0,-0.1026,-0.0994,-0.0975,-0.0954,-0.0934,-0.0898,-0.0875,-0.084,-0.0801,-0.0764,-0.07,-0.0635,-0.0591,-0.0546,-0.0501,-0.0367,-0.0319,-0.0387,-0.0197,-0.0191,-0.0164,-0.0131,-0.0114,0.0034,-0.0148,-0.0146,-0.0145,0,-0.1024,-0.1008,-0.0982,-0.0965,-0.0953,-0.0938,-0.0907,-0.088,-0.0832,-0.0799,-0.0752,-0.0695,-0.0612,-0.0579,-0.0402,-0.0446,-0.0341,-0.025,-0.0241,-0.0161,-0.0122,0.0007,0.0061,0.0186,-0.0128,-0.0129,-0.013,0,-0.1057,-0.1021,-0.1011,-0.1,-0.0962,-0.0955,-0.094,-0.0894,-0.0878,-0.0825,-0.0796,-0.0713,-0.0641,-0.0526,-0.0348,-0.0369,-0.0146,-0.0151,-0.001,-0.0004,0.0066,0.0075,0.0245,-0.0039,-0.0039,-0.0039,-0.004,0,-0.1066,-0.1061,-0.1031,-0.1027,-0.1024,-0.0993,-0.0985,-0.0952,-0.0915,-0.0886,-0.0827,-0.0768,-0.0622,-0.0485,-0.0351,-0.0134,-0.0147,-0.0004,0.0041,0.004,0.0045,0.0202,0.0239,-0.0033,-0.0035,-0.0036,-0.0037,0,-0.1091,-0.1071,-0.1063,-0.1039,-0.1035,-0.1036,-0.102,-0.1006,-0.0967,-0.0921,-0.0905,-0.0789,-0.06,-0.0439,-0.021,-0.0109,0.0162,0.0152,0.0149,0.019,0.0408,0.0439,0.0658,0.0729,0.0324,0.0326,0.0328,0,-0.1093,-0.1092,-0.1078,-0.1072,-0.1061,-0.1061,-0.1051,-0.1031,-0.1008,-0.0918,-0.0888,-0.0723,-0.0588,-0.0251,-0.0036,0.0209,0.0289,0.0367,0.032,0.0439,0.0507,0.0524,0.0568,0.0394,0.0396,0.0398,0.0399,0,-0.1089,-0.1087,-0.1071,-0.1068,-0.1065,-0.1071,-0.1057,-0.1057,-0.101,-0.0963,-0.085,-0.0745,-0.0433,-0.0156,0.0152,0.0293,0.0449,0.0412,0.0539,0.0583,0.061,0.0693,0.0277,0.0415,0.0414,0.0413,0.0412,0.0411,-0.107,-0.106,-0.1036,-0.1033,-0.1043,-0.1049,-0.1049,-0.1033,-0.1001,-0.0914,-0.0817,-0.064,-0.0265,0.0162,0.0329,0.0659,0.0615,0.0741,0.0775,0.0788,0.0836,0.0461,0.0638,0.0638,0.0638,0.0637,0.0637,0,-0.1005,-0.0994,-0.0997,-0.0988,-0.0998,-0.1015,-0.1016,-0.1005,-0.096,-0.0871,-0.076,-0.0368,0.0018,0.0363,0.0822,0.1004,0.1027,0.1092,0.1117,0.1147,0.0833,0.0814,0.1032,0.1032,0.1032,0.1032,0.1032,0.1032,-0.0961,-0.0923,-0.0928,-0.0921,-0.0937,-0.0937,-0.0938,-0.0929,-0.0873,-0.0706,-0.0516,-0.0371,0.013,0.0862,0.129,0.1332,0.1467,0.146,0.154,0.131,0.1279,0.125,0.1243,0.1548,0.1548,0.1835,0.1838,0.184]}],[{"header":{"parameterUnit":"m.s-1","parameterCategory":2,"la1":30.2991,"la2":30.254,"lo1":-89.0895,"lo2":-89.0444,"dy":0.0017,"dx":0.0017,"nx":28,"ny":28,"refTime":"2025-01-15T09:00:00:Z","depth":"2","parameterNumber":2,"parameterNumberName":"U-component_of_CURRENTS"},"data":[0,0,0,0,0,0,0,0,0,0,0,0,0,0,0,0,0,0,0,0,0,0,0,0,0,0,0,0,0,0,0,0,0,0,0,0,0,0,0,0,0,0,0,0,0,0,0,0,0,0,0,0,0,0,0,0,0,0,-0.2117,-0.212,0,-0.2304,-0.2306,-0.2307,-0.2406,-0.2407,-0.2407,-0.2408,-0.2349,-0.2347,-0.2345,0,0,0,0,0,0,0,0,0,0,0,0,0,-0.1921,-0.1923,-0.2117,-0.212,-0.2123,-0.2304,-0.2306,-0.2308,-0.2406,-0.2407,-0.2408,-0.2408,-0.235,-0.2347,-0.2345,0,0,0,0,0,0,0,0,0,0,0,0,0,-0.2041,-0.1924,-0.2117,-0.2198,-0.2208,-0.2303,-0.2306,-0.2308,-0.2406,-0.2407,-0.2408,-0.2409,-0.2351,-0.2348,-0.2344,-0.2301,0,0,-0.2334,-0.2332,0,0,0,0,0,0,0,0,-0.2034,-0.2047,-0.2183,-0.2193,-0.2204,-0.2338,-0.2216,-0.2296,-0.2405,-0.2324,-0.2408,-0.2409,-0.2326,-0.2325,-0.2352,-0.2299,-0.2296,-0.2334,-0.2332,-0.233,-0.2329,0,0,0,0,0,0,0,-0.2025,-0.204,-0.2185,-0.2186,-0.2199,-0.2252,-0.2269,-0.2232,-0.2307,-0.2331,-0.234,-0.2371,-0.2329,-0.2355,-0.2351,-0.2295,-0.2334,-0.2331,-0.2329,-0.2327,-0.2258,-0.2259,0,0,0,0,0,0,-0.201,-0.2032,-0.2179,-0.2191,-0.2127,-0.2255,-0.2273,-0.2289,-0.2313,-0.2322,-0.2369,-0.2375,-0.2361,-0.2355,-0.2349,-0.2382,-0.233,-0.2327,-0.2325,-0.2258,-0.2258,-0.2259,0,0,0,0,0,0,-0.2004,-0.202,-0.2172,-0.2122,-0.2145,-0.2257,-0.2274,-0.2292,-0.2376,-0.2346,-0.2349,-0.2442,-0.2361,-0.2353,-0.2336,-0.2377,-0.2325,-0.2322,-0.2258,-0.2258,-0.2258,-0.2394,0,0,0,0,0,0,-0.1997,-0.2017,-0.203,-0.212,-0.2148,-0.2247,-0.2274,-0.2295,-0.2393,-0.2403,-0.2407,-0.2401,-0.2362,-0.2341,-0.2332,-0.2371,-0.232,-0.2258,-0.2258,-0.2258,-0.239,-0.2399,-0.2408,0,0,0,0,0,-0.1989,-0.2017,-0.2029,-0.2048,-0.2159,-0.2249,-0.2268,-0.2347,-0.2396,-0.2428,-0.2422,-0.2404,-0.2337,-0.2338,-0.2328,-0.2367,-0.2257,-0.2258,-0.2258,-0.2386,-0.2397,-0.2407,0,0,0,0,0,0,-0.1985,-0.2032,-0.2048,-0.21,-0.2172,-0.2269,-0.2306,-0.2381,-0.2414,-0.2426,-0.2401,-0.2392,-0.238,-0.235,-0.2352,-0.2343,-0.2296,-0.2294,-0.2396,-0.2407,-0.2415,-0.2389,-0.2317,0,0,0,0,0,-0.1975,-0.1991,-0.2061,-0.2116,-0.2129,-0.2227,-0.2281,-0.2351,-0.2395,-0.242,-0.2409,-0.2391,-0.2366,-0.2372,-0.2319,-0.2329,-0.2272,-0.2345,-0.2354,-0.2362,-0.2331,-0.2292,-0.2295,-0.226,-0.226,-0.226,0,0,-0.2015,-0.2028,-0.2057,-0.2112,-0.2158,-0.2191,-0.2261,-0.236,-0.2397,-0.2395,-0.2407,-0.2405,-0.2365,-0.236,-0.2357,-0.2354,-0.2346,-0.2363,-0.2371,-0.2333,-0.2292,-0.2296,-0.2299,-0.226,-0.226,-0.226,0,0,-0.206,-0.2076,-0.2082,-0.2114,-0.2184,-0.2223,-0.2262,-0.2355,-0.2388,-0.2409,-0.2417,-0.2447,-0.2395,-0.2406,-0.2397,-0.2424,-0.2373,-0.2424,-0.2481,-0.2446,-0.2449,-0.245,-0.2408,-0.2404,-0.2458,-0.2459,-0.2459,0,-0.2083,-0.2101,-0.2115,-0.2113,-0.2146,-0.2233,-0.2267,-0.2303,-0.239,-0.2406,-0.2406,-0.2411,-0.2405,-0.2439,-0.2461,-0.2447,-0.2408,-0.2458,-0.246,-0.246,-0.2459,-0.2415,-0.2409,-0.2465,-0.2464,-0.2464,-0.2463,0,-0.2122,-0.2131,-0.214,-0.213,-0.2169,-0.2227,-0.226,-0.2304,-0.2347,-0.2385,-0.2414,-0.2425,-0.2454,-0.2472,-0.2475,-0.2507,-0.2474,-0.2459,-0.2442,-0.2471,-0.2422,-0.2414,-0.2475,-0.2472,-0.247,-0.2469,0,0,-0.216,-0.2157,-0.2152,-0.2142,-0.2186,-0.222,-0.2249,-0.2295,-0.2326,-0.2375,-0.2406,-0.2436,-0.2505,-0.25,-0.2556,-0.2546,-0.2549,-0.2523,-0.2518,-0.2494,-0.2462,-0.2385,-0.2368,-0.2545,-0.2544,-0.2542,-0.2441,0,-0.2172,-0.2147,-0.2161,-0.2176,-0.2168,-0.2224,-0.224,-0.2299,-0.2325,-0.2353,-0.2412,-0.243,-0.2501,-0.2553,-0.2573,-0.2533,-0.2527,-0.2575,-0.242,-0.2415,-0.2355,-0.2356,-0.22,-0.209,-0.2432,-0.2431,-0.243,0,-0.2163,-0.2155,-0.2146,-0.2163,-0.2165,-0.2195,-0.2235,-0.2265,-0.2319,-0.2344,-0.2425,-0.2457,-0.2526,-0.2537,-0.2527,-0.2559,-0.2522,-0.2473,-0.2468,-0.2328,-0.232,-0.2106,-0.2061,-0.2415,-0.2416,-0.2417,-0.2418,0,-0.2116,-0.2125,-0.2107,-0.2115,-0.2157,-0.2182,-0.2217,-0.2273,-0.228,-0.2344,-0.2354,-0.2449,-0.2471,-0.2461,-0.2454,-0.2483,-0.2357,-0.2386,-0.2273,-0.2267,-0.2061,-0.2039,-0.2318,-0.2318,-0.2319,-0.2319,-0.2319,0,-0.207,-0.2057,-0.2086,-0.208,-0.2093,-0.2146,-0.2162,-0.2212,-0.2268,-0.226,-0.2367,-0.2372,-0.2439,-0.2414,-0.2414,-0.2321,-0.2347,-0.225,-0.2226,-0.2107,-0.209,-0.2306,-0.2306,-0.2315,-0.2316,-0.2317,-0.2317,0,-0.1974,-0.1996,-0.1982,-0.2038,-0.2058,-0.2058,-0.2109,-0.2111,-0.2186,-0.218,-0.2199,-0.2281,-0.2256,-0.229,-0.2231,-0.2233,-0.216,-0.2111,-0.1969,-0.193,-0.2105,-0.2113,-0.1978,-0.1974,-0.1971,-0.1968,-0.1966,0,-0.1895,-0.1886,-0.192,-0.1914,-0.1934,-0.1954,-0.1966,-0.2056,-0.2053,-0.2106,-0.2085,-0.2093,-0.2081,-0.2,-0.1983,-0.1939,-0.2028,-0.1753,-0.1781,-0.2074,-0.2066,-0.2079,-0.2091,-0.1573,-0.1567,-0.1563,-0.1559,0,-0.1774,-0.1794,-0.1784,-0.1782,-0.1788,-0.1782,-0.1812,-0.1808,-0.1891,-0.1892,-0.1877,-0.1869,-0.1836,-0.1734,-0.1695,-0.1656,-0.1765,-0.1662,-0.1966,-0.1695,-0.1687,-0.1681,-0.1707,-0.1521,-0.1525,-0.1528,-0.153,-0.1531,-0.1665,-0.1631,-0.1631,-0.1613,-0.1622,-0.1601,-0.1563,-0.1596,-0.1579,-0.1572,-0.164,-0.1583,-0.1595,-0.1465,-0.1399,-0.1368,-0.1499,-0.1444,-0.1459,-0.1479,-0.1462,-0.1449,-0.1235,-0.1237,-0.1239,-0.1241,-0.1242,0,-0.15,-0.1488,-0.1464,-0.1437,-0.139,-0.1453,-0.1439,-0.1387,-0.1325,-0.1353,-0.1336,-0.1208,-0.1138,-0.1172,-0.1068,-0.1053,-0.1068,-0.1007,-0.103,-0.1067,-0.1101,-0.1068,-0.0735,-0.0734,-0.0732,-0.0731,0,0,-0.1412,-0.1331,-0.1327,-0.1213,-0.1203,-0.1116,-0.1087,-0.1045,-0.1041,-0.0972,-0.0957,-0.1051,-0.1107,-0.0915,-0.0875,-0.0789,-0.092,-0.0744,-0.1146,-0.1207,-0.1239,-0.1339,-0.1328,0,0,0,0,0]},{"header":{"parameterUnit":"m.s-1","parameterCategory":2,"la1":30.2991,"la2":30.254,"lo1":-89.0895,"lo2":-89.0444,"dy":0.0017,"dx":0.0017,"nx":28,"ny":28,"refTime":"2025-01-15T09:00:00:Z","depth":"2","parameterNumber":3,"parameterNumberName":"V-component_of_CURRENTS"},"data":[0,0,0,0,0,0,0,0,0,0,0,0,0,0,0,0,0,0,0,0,0,0,0,0,0,0,0,0,0,0,0,0,0,0,0,0,0,0,0,0,0,0,0,0,0,0,0,0,0,0,0,0,0,0,0,0,0,0,-0.0137,-0.0136,0,0.0036,0.0039,0.0043,0.0073,0.007,0.0067,0.0064,0.0144,0.0148,0.0153,0,0,0,0,0,0,0,0,0,0,0,0,0,-0.0185,-0.0184,-0.0137,-0.0136,-0.0135,0.0036,0.004,0.0044,0.0073,0.007,0.0066,0.0062,0.0142,0.0148,0.0154,0,0,0,0,0,0,0,0,0,0,0,0,0,-0.0088,-0.0184,-0.0137,-0.0112,-0.011,0.0035,0.004,0.0045,0.0074,0.0069,0.0065,0.0061,0.014,0.0147,0.0155,0.029,0,0,0.0177,0.018,0,0,0,0,0,0,0,0,-0.0093,-0.0084,-0.0117,-0.0114,-0.0111,0.0013,0.0051,0.0116,0.0075,0.0022,0.0064,0.0059,0.0084,0.0096,0.0163,0.0294,0.0297,0.0178,0.0182,0.0185,0.0187,0,0,0,0,0,0,0,-0.01,-0.009,-0.0051,-0.0116,-0.0113,-0.0023,-0.0015,0.0067,0.0087,0.0026,0.0025,0.0019,0.0086,0.0157,0.0165,0.0298,0.0178,0.0184,0.0189,0.0192,0.0342,0.0341,0,0,0,0,0,0,-0.0164,-0.0097,-0.0057,-0.0048,-0.0132,-0.0021,-0.0011,-0.0008,0.0088,0.0095,0.0022,0.0019,0.0146,0.0156,0.0167,0.0161,0.0185,0.0192,0.0196,0.0342,0.0342,0.0341,0,0,0,0,0,0,-0.0165,-0.0161,-0.0064,-0.0082,-0.0066,-0.002,-0.0014,-0.0003,0.0015,0.0083,0.009,0.0018,0.0143,0.0157,0.0192,0.0169,0.0196,0.0202,0.0343,0.0342,0.0341,0.0256,0,0,0,0,0,0,-0.0167,-0.0162,-0.0169,-0.0087,-0.0069,-0.0019,-0.0011,0.0003,0.0013,0.001,0.0084,0.009,0.0141,0.0181,0.02,0.018,0.0208,0.0343,0.0342,0.0341,0.026,0.0253,0.0247,0,0,0,0,0,-0.0169,-0.018,-0.017,-0.0166,-0.0084,-0.0021,-0.0,0.0031,0.0015,0.0031,0.0067,0.0085,0.0187,0.0188,0.021,0.0191,0.0344,0.0343,0.0342,0.0262,0.0254,0.0247,0,0,0,0,0,0,-0.0216,-0.0177,-0.0164,-0.0167,-0.0117,-0.0024,-0.0011,0.0012,0.0067,0.004,0.0107,0.0118,0.0134,0.0183,0.0182,0.0229,0.0259,0.0263,0.0192,0.0185,0.0178,0.0183,0.0214,0,0,0,0,0,-0.0227,-0.0225,-0.0168,-0.0173,-0.0153,-0.0081,-0.0053,-0.004,0.001,0.0029,0.0088,0.013,0.0167,0.0183,0.0239,0.0289,0.033,0.0281,0.0275,0.0269,0.0286,0.0316,0.0314,0.0338,0.0338,0.0338,0,0,-0.0261,-0.0231,-0.0239,-0.0183,-0.0135,-0.0103,-0.0073,-0.0057,-0.0037,0.003,0.0081,0.0118,0.0174,0.0213,0.0223,0.0238,0.0283,0.0268,0.0262,0.0283,0.0315,0.0313,0.0311,0.0337,0.0337,0.0337,0,0,-0.0301,-0.0285,-0.0284,-0.0243,-0.0201,-0.015,-0.0164,-0.0082,-0.0055,0.0,0.003,0.0054,0.0146,0.0181,0.0205,0.0204,0.0247,0.02,0.0179,0.0207,0.0205,0.0204,0.0246,0.025,0.0198,0.0198,0.0197,0,-0.0332,-0.0323,-0.0275,-0.025,-0.0234,-0.0186,-0.0178,-0.0121,-0.0041,-0.0018,-0.0017,0.0099,0.0134,0.0172,0.0161,0.0189,0.0217,0.0199,0.0198,0.0198,0.0199,0.0242,0.0247,0.0193,0.0194,0.0194,0.0195,0,-0.0356,-0.0348,-0.0346,-0.0299,-0.027,-0.0262,-0.02,-0.0165,-0.0139,-0.0081,-0.0035,0.0041,0.0093,0.0103,0.0135,0.0153,0.0175,0.0182,0.0214,0.0191,0.0239,0.0245,0.0187,0.0189,0.019,0.0191,0,0,-0.0424,-0.037,-0.0369,-0.0355,-0.0303,-0.0278,-0.0255,-0.0199,-0.0191,-0.0108,-0.0079,-0.0008,0.0021,0.0052,0.0091,0.0131,0.0148,0.0153,0.0156,0.019,0.0218,0.0231,0.024,0.0145,0.0146,0.0147,0.0247,0,-0.045,-0.0417,-0.0391,-0.0383,-0.0365,-0.0324,-0.0302,-0.0259,-0.0208,-0.0157,-0.0089,-0.0043,0.0002,0.001,0.0052,0.0125,0.0164,0.0122,0.0242,0.0247,0.0256,0.0248,0.0217,0.0303,0.0254,0.0255,0.0256,0,-0.0472,-0.045,-0.0436,-0.0416,-0.0409,-0.0403,-0.0372,-0.0343,-0.0275,-0.0242,-0.0186,-0.0126,-0.0055,-0.0024,0.0103,0.007,0.0136,0.0204,0.0209,0.0262,0.0272,0.0321,0.0318,0.0268,0.0267,0.0266,0.0266,0,-0.0511,-0.0483,-0.0473,-0.0462,-0.043,-0.0435,-0.0423,-0.0374,-0.0353,-0.0291,-0.0275,-0.0181,-0.0138,-0.0038,0.0095,0.0089,0.0244,0.0244,0.0331,0.0334,0.0356,0.0359,0.0333,0.0333,0.0332,0.0332,0.0332,0,-0.0531,-0.0532,-0.0494,-0.0489,-0.0509,-0.0479,-0.0487,-0.0462,-0.043,-0.0408,-0.0326,-0.0283,-0.0141,-0.0034,0.0079,0.0232,0.0224,0.0342,0.036,0.0325,0.0323,0.0335,0.0334,0.0336,0.0335,0.0334,0.0334,0,-0.0565,-0.0535,-0.0532,-0.0516,-0.0522,-0.0534,-0.0535,-0.0534,-0.0504,-0.0475,-0.0461,-0.0356,-0.022,-0.0059,0.0115,0.021,0.0355,0.0409,0.0368,0.038,0.0431,0.0425,0.0512,0.0513,0.0514,0.0515,0.0516,0,-0.057,-0.0569,-0.0554,-0.0564,-0.0563,-0.0577,-0.0592,-0.0575,-0.0565,-0.0506,-0.0492,-0.0369,-0.0265,-0.0002,0.0182,0.0386,0.0394,0.0473,0.0457,0.0441,0.045,0.0442,0.0434,0.0456,0.0456,0.0456,0.0457,0,-0.0599,-0.059,-0.0583,-0.0596,-0.0615,-0.0629,-0.0642,-0.065,-0.0619,-0.0591,-0.0523,-0.0439,-0.0201,0.0009,0.0259,0.0375,0.0434,0.0483,0.0481,0.0407,0.0394,0.0401,0.0394,0.0458,0.0458,0.0458,0.0458,0.0458,-0.0622,-0.0624,-0.0608,-0.0623,-0.0647,-0.0666,-0.0673,-0.0675,-0.0665,-0.0611,-0.0539,-0.0404,-0.0211,0.0136,0.0314,0.0474,0.0476,0.0522,0.0519,0.0517,0.0483,0.0472,0.0546,0.0547,0.0547,0.0547,0.0547,0,-0.0628,-0.0626,-0.0638,-0.0645,-0.0663,-0.0672,-0.069,-0.0679,-0.0658,-0.0606,-0.0525,-0.0313,-0.0085,0.0118,0.0371,0.0524,0.0511,0.0547,0.05,0.0497,0.0496,0.0459,0.0517,0.0518,0.0518,0.0518,0,0,-0.063,-0.0627,-0.0623,-0.0642,-0.0657,-0.0668,-0.0672,-0.0659,-0.0618,-0.0558,-0.0471,-0.0337,-0.0088,0.0086,0.0274,0.0404,0.0411,0.0414,0.0422,0.0342,0.0338,0.0465,0.0405,0,0,0,0,0]}],[{"header":{"parameterUnit":"m.s-1","parameterCategory":2,"la1":30.2991,"la2":30.254,"lo1":-89.0895,"lo2":-89.0444,"dy":0.0017,"dx":0.0017,"nx":28,"ny":28,"refTime":"2025-01-15T09:00:00:Z","depth":"4","parameterNumber":2,"parameterNumberName":"U-component_of_CURRENTS"},"data":[0,0,0,0,0,0,0,0,0,0,0,0,0,0,0,0,0,0,0,0,0,0,0,0,0,0,0,0,0,0,0,0,0,0,0,0,0,0,0,0,0,0,0,0,0,0,0,0,0,0,0,0,0,0,0,0,0,0,-0.0887,-0.0885,0,-0.0807,-0.0806,-0.0806,-0.0812,-0.0813,-0.0814,-0.0814,-0.0845,-0.0846,-0.0846,0,0,0,0,0,0,0,0,0,0,0,0,0,-0.0946,-0.0946,-0.0887,-0.0885,-0.0883,-0.0807,-0.0806,-0.0806,-0.0812,-0.0813,-0.0814,-0.0814,-0.0845,-0.0845,-0.0846,0,0,0,0,0,0,0,0,0,0,0,0,0,-0.0905,-0.0947,-0.0887,-0.0873,-0.087,-0.0807,-0.0806,-0.0806,-0.0812,-0.0813,-0.0814,-0.0815,-0.0845,-0.0845,-0.0846,-0.083,0,0,-0.0847,-0.0847,0,0,0,0,0,0,0,0,-0.0908,-0.0904,-0.0876,-0.0873,-0.087,-0.0814,-0.0838,-0.0817,-0.0812,-0.0841,-0.0814,-0.0815,-0.084,-0.0841,-0.0832,-0.0832,-0.0833,-0.0847,-0.0847,-0.0848,-0.0848,0,0,0,0,0,0,0,-0.0911,-0.0907,-0.0862,-0.0874,-0.0871,-0.0835,-0.0833,-0.0834,-0.0844,-0.0839,-0.0837,-0.0817,-0.0841,-0.0831,-0.0833,-0.0834,-0.0847,-0.0847,-0.0848,-0.0848,-0.0962,-0.0965,0,0,0,0,0,0,-0.0911,-0.091,-0.0864,-0.0859,-0.0884,-0.0834,-0.083,-0.0837,-0.0841,-0.084,-0.0817,-0.0818,-0.083,-0.0832,-0.0834,-0.092,-0.0848,-0.0848,-0.0848,-0.096,-0.0963,-0.0966,0,0,0,0,0,0,-0.0914,-0.0909,-0.0867,-0.0875,-0.0867,-0.0832,-0.0839,-0.0835,-0.0835,-0.0822,-0.0825,-0.0821,-0.0831,-0.0834,-0.0848,-0.0918,-0.0848,-0.0848,-0.0956,-0.0961,-0.0965,-0.1026,0,0,0,0,0,0,-0.0916,-0.0911,-0.0917,-0.0877,-0.0866,-0.0847,-0.0837,-0.0832,-0.0817,-0.0819,-0.0827,-0.083,-0.0832,-0.0847,-0.0848,-0.0917,-0.0849,-0.0953,-0.0958,-0.0963,-0.1021,-0.1032,-0.1042,0,0,0,0,0,-0.0919,-0.0928,-0.0919,-0.0912,-0.0877,-0.0846,-0.0839,-0.082,-0.0817,-0.0823,-0.0826,-0.083,-0.0884,-0.0848,-0.0849,-0.092,-0.095,-0.0957,-0.0963,-0.1016,-0.103,-0.1042,0,0,0,0,0,0,-0.0952,-0.0927,-0.0917,-0.0917,-0.0888,-0.0845,-0.0854,-0.0823,-0.0826,-0.0842,-0.0831,-0.0835,-0.0893,-0.0887,-0.0848,-0.0974,-0.0932,-0.0939,-0.0973,-0.0985,-0.0996,-0.0977,-0.0849,0,0,0,0,0,-0.096,-0.0967,-0.0928,-0.0926,-0.0931,-0.0892,-0.0876,-0.0858,-0.0846,-0.0848,-0.0848,-0.0874,-0.0917,-0.093,-0.0961,-0.0995,-0.098,-0.1055,-0.1066,-0.1074,-0.1064,-0.1099,-0.111,-0.0987,-0.0987,-0.0987,0,0,-0.0961,-0.0954,-0.095,-0.0933,-0.0928,-0.093,-0.089,-0.0882,-0.0886,-0.0853,-0.0884,-0.0905,-0.0935,-0.0997,-0.1024,-0.0998,-0.1104,-0.1082,-0.1089,-0.1074,-0.1106,-0.1118,-0.1128,-0.0991,-0.099,-0.099,0,0,-0.098,-0.0985,-0.1004,-0.0993,-0.0979,-0.0961,-0.096,-0.0931,-0.0938,-0.0945,-0.0955,-0.0993,-0.1033,-0.1068,-0.1093,-0.1172,-0.1163,-0.1215,-0.1243,-0.1278,-0.1287,-0.1296,-0.1288,-0.1295,-0.1214,-0.1214,-0.1214,0,-0.0998,-0.1007,-0.0998,-0.1019,-0.1018,-0.0983,-0.1,-0.0996,-0.0965,-0.0979,-0.0976,-0.105,-0.1072,-0.1146,-0.1189,-0.1197,-0.1198,-0.1188,-0.1289,-0.1296,-0.1303,-0.1294,-0.1301,-0.1218,-0.1218,-0.1217,-0.1217,0,-0.1014,-0.1036,-0.1058,-0.1081,-0.1079,-0.1089,-0.1081,-0.1092,-0.1095,-0.1078,-0.1142,-0.1157,-0.1194,-0.1238,-0.1236,-0.132,-0.1299,-0.13,-0.1246,-0.1319,-0.1305,-0.1311,-0.1223,-0.1222,-0.1221,-0.122,0,0,-0.1038,-0.1068,-0.1082,-0.1097,-0.1116,-0.1109,-0.1158,-0.1173,-0.1197,-0.1198,-0.1235,-0.1308,-0.1295,-0.1322,-0.1335,-0.1364,-0.1421,-0.1356,-0.1356,-0.1329,-0.1474,-0.1367,-0.1362,-0.1444,-0.1446,-0.1447,-0.144,0,-0.1069,-0.1116,-0.1125,-0.1162,-0.1185,-0.1194,-0.1233,-0.1242,-0.126,-0.1287,-0.1312,-0.1356,-0.1335,-0.1366,-0.1391,-0.142,-0.144,-0.142,-0.1423,-0.1422,-0.1303,-0.1367,-0.1453,-0.1444,-0.1446,-0.1446,-0.1447,0,-0.1085,-0.1114,-0.1168,-0.1205,-0.1223,-0.1242,-0.13,-0.1319,-0.1361,-0.1384,-0.1412,-0.1416,-0.1456,-0.1438,-0.1477,-0.1467,-0.1474,-0.1483,-0.1483,-0.136,-0.1326,-0.1361,-0.1457,-0.1456,-0.1455,-0.1455,-0.1454,0,-0.1078,-0.1141,-0.1186,-0.1196,-0.1239,-0.128,-0.1305,-0.1351,-0.1376,-0.1435,-0.1457,-0.149,-0.1512,-0.1529,-0.1516,-0.1516,-0.1547,-0.1549,-0.145,-0.1441,-0.1507,-0.1499,-0.1584,-0.1584,-0.1585,-0.1585,-0.1585,0,-0.1086,-0.1119,-0.1188,-0.1198,-0.1248,-0.1284,-0.1336,-0.1374,-0.143,-0.1447,-0.1488,-0.1498,-0.1543,-0.1547,-0.1539,-0.1488,-0.1558,-0.1452,-0.144,-0.1534,-0.1529,-0.151,-0.1502,-0.1584,-0.1584,-0.1584,-0.1584,0,-0.1056,-0.1107,-0.1144,-0.1213,-0.1238,-0.1267,-0.133,-0.1354,-0.1424,-0.1453,-0.1474,-0.152,-0.1522,-0.1528,-0.1559,-0.1502,-0.1483,-0.1453,-0.1526,-0.1518,-0.1346,-0.1342,-0.1344,-0.134,-0.1337,-0.1334,-0.1332,0,-0.1038,-0.1058,-0.1137,-0.1157,-0.1191,-0.1242,-0.127,-0.1342,-0.1361,-0.1436,-0.1435,-0.1474,-0.1485,-0.1411,-0.1451,-0.1418,-0.1406,-0.1383,-0.1387,-0.1337,-0.1326,-0.1326,-0.1326,-0.1327,-0.1326,-0.1326,-0.1325,0,-0.0993,-0.1036,-0.1069,-0.111,-0.1145,-0.1169,-0.1214,-0.1221,-0.1293,-0.1373,-0.1353,-0.1345,-0.1344,-0.1339,-0.1323,-0.1302,-0.1393,-0.1351,-0.1358,-0.1361,-0.1318,-0.1309,-0.1313,-0.1314,-0.1316,-0.1317,-0.1317,0,-0.0963,-0.0974,-0.1023,-0.1042,-0.1084,-0.1075,-0.1108,-0.112,-0.1147,-0.1236,-0.1225,-0.126,-0.1323,-0.1278,-0.1259,-0.1231,-0.1221,-0.1186,-0.1201,-0.1214,-0.1175,-0.1102,-0.102,0,0,0,0,0,-0.0922,-0.0922,-0.0942,-0.0953,-0.0988,-0.1001,-0.106,-0.1095,-0.1171,-0.1122,-0.117,-0.1157,-0.1135,-0.1159,-0.1103,-0.1211,-0.123,-0.1143,-0.1199,-0.1254,-0.1267,-0.1235,0,0,0,0,0,0,-0.0896,-0.0923,-0.0917,-0.0872,-0.0857,-0.0873,-0.09,-0.0951,-0.0933,-0.1021,-0.101,-0.1084,-0.1077,-0.114,-0.1076,-0.1085,-0.1096,-0.1178,-0.1175,-0.1247,-0.1259,-0.1268,-0.124,0,0,0,0,0]},{"header":{"parameterUnit":"m.s-1","parameterCategory":2,"la1":30.2991,"la2":30.254,"lo1":-89.0895,"lo2":-89.0444,"dy":0.0017,"dx":0.0017,"nx":28,"ny":28,"refTime":"2025-01-15T09:00:00:Z","depth":"4","parameterNumber":3,"parameterNumberName":"V-component_of_CURRENTS"},"data":[0,0,0,0,0,0,0,0,0,0,0,0,0,0,0,0,0,0,0,0,0,0,0,0,0,0,0,0,0,0,0,0,0,0,0,0,0,0,0,0,0,0,0,0,0,0,0,0,0,0,0,0,0,0,0,0,0,0,0.012,0.0121,0,0.0144,0.0145,0.0145,0.0188,0.0189,0.019,0.0191,0.0225,0.0225,0.0225,0,0,0,0,0,0,0,0,0,0,0,0,0,0.0068,0.0069,0.012,0.0121,0.0121,0.0144,0.0145,0.0145,0.0188,0.0189,0.019,0.0191,0.0225,0.0225,0.0225,0,0,0,0,0,0,0,0,0,0,0,0,0,0.0091,0.0069,0.012,0.0146,0.0149,0.0144,0.0145,0.0145,0.0188,0.0189,0.0191,0.0192,0.0225,0.0225,0.0225,0.0199,0,0,0.0226,0.0226,0,0,0,0,0,0,0,0,0.0089,0.0092,0.0142,0.0144,0.0147,0.0165,0.0139,0.0164,0.0187,0.0172,0.0191,0.0192,0.0206,0.0207,0.0208,0.0201,0.0203,0.0226,0.0226,0.0226,0.0226,0,0,0,0,0,0,0,0.0088,0.0091,0.0129,0.0142,0.0145,0.0141,0.0146,0.0143,0.0181,0.0174,0.0177,0.018,0.0207,0.0208,0.0209,0.0203,0.0226,0.0226,0.0226,0.0226,0.0247,0.0248,0,0,0,0,0,0,0.0087,0.009,0.0128,0.013,0.0122,0.0141,0.0147,0.0157,0.0181,0.0186,0.0179,0.0182,0.0207,0.0209,0.021,0.0214,0.0226,0.0226,0.0226,0.0247,0.0247,0.0248,0,0,0,0,0,0,0.0086,0.0091,0.0127,0.0111,0.0115,0.0141,0.0152,0.0157,0.0163,0.0185,0.019,0.018,0.0208,0.021,0.0218,0.0214,0.0226,0.0226,0.0246,0.0247,0.0248,0.0199,0,0,0,0,0,0,0.0084,0.009,0.0091,0.0111,0.0116,0.0122,0.0151,0.0157,0.0163,0.0167,0.0187,0.0192,0.0209,0.0218,0.0218,0.0215,0.0226,0.0246,0.0246,0.0247,0.02,0.0198,0.0196,0,0,0,0,0,0.0083,0.0076,0.0091,0.0096,0.0119,0.0121,0.0123,0.0145,0.0161,0.0156,0.018,0.0191,0.0225,0.0217,0.0218,0.0215,0.0245,0.0246,0.0247,0.0201,0.0199,0.0196,0,0,0,0,0,0,0.0057,0.0081,0.0098,0.0101,0.011,0.0129,0.0123,0.0139,0.0152,0.0162,0.0185,0.019,0.0197,0.0214,0.0206,0.0228,0.0241,0.0242,0.0206,0.0204,0.0202,0.0189,0.0227,0,0,0,0,0,0.0051,0.0055,0.0076,0.0079,0.008,0.01,0.0103,0.0122,0.0137,0.0145,0.0158,0.0182,0.0199,0.0208,0.0221,0.0222,0.0245,0.0227,0.0225,0.0223,0.0216,0.026,0.0261,0.0251,0.0251,0.0251,0,0,0.0044,0.0057,0.006,0.0074,0.0082,0.0077,0.0105,0.0109,0.0111,0.0144,0.0143,0.0166,0.0198,0.0206,0.0212,0.0221,0.0237,0.0225,0.0222,0.0216,0.0262,0.0263,0.0263,0.0252,0.0252,0.0252,0,0,0.0021,0.004,0.0029,0.0034,0.0047,0.0059,0.0059,0.0074,0.0085,0.0086,0.0122,0.0143,0.0155,0.0185,0.0201,0.0195,0.0222,0.0206,0.0185,0.0228,0.0229,0.023,0.025,0.0253,0.0209,0.0209,0.0209,0,0.0006,0.0008,0.0025,0.0015,0.0016,0.0048,0.0035,0.0046,0.0065,0.0075,0.0082,0.0124,0.0145,0.0174,0.0176,0.0188,0.0212,0.0185,0.0224,0.0225,0.0227,0.0248,0.0252,0.0206,0.0207,0.0207,0.0207,0,-0.0022,-0.0023,-0.0031,-0.0028,-0.0028,-0.0032,-0.0013,-0.0006,0.001,0.0029,0.0051,0.0081,0.0115,0.0126,0.0144,0.0174,0.0185,0.021,0.0223,0.0225,0.0247,0.0252,0.0203,0.0204,0.0205,0.0205,0,0,-0.006,-0.0053,-0.0058,-0.0058,-0.0049,-0.0049,-0.0048,-0.0035,-0.0025,-0.0005,0.0008,0.0039,0.0069,0.009,0.0125,0.0156,0.0183,0.0184,0.0187,0.0192,0.0265,0.0239,0.0243,0.0218,0.0219,0.022,0.027,0,-0.0091,-0.0111,-0.0103,-0.012,-0.0126,-0.0099,-0.0106,-0.0083,-0.0059,-0.004,0.0008,0.0028,0.0054,0.0071,0.0108,0.0163,0.0197,0.0166,0.0273,0.0275,0.0243,0.0248,0.0223,0.0274,0.0275,0.0276,0.0277,0,-0.0128,-0.0131,-0.0155,-0.0152,-0.0156,-0.0164,-0.015,-0.0148,-0.0104,-0.0088,-0.0045,-0.0004,0.0043,0.0066,0.0156,0.0136,0.0196,0.0236,0.024,0.0236,0.026,0.0278,0.0287,0.0286,0.0285,0.0284,0.0284,0,-0.0154,-0.0169,-0.0185,-0.0185,-0.0182,-0.0188,-0.0187,-0.016,-0.0158,-0.0109,-0.01,-0.0029,-0.0002,0.0081,0.0161,0.0166,0.0256,0.0283,0.0316,0.0314,0.0342,0.0341,0.0356,0.0356,0.0356,0.0356,0.0356,0,-0.0184,-0.0199,-0.0198,-0.0203,-0.0227,-0.0216,-0.023,-0.0216,-0.0195,-0.0194,-0.0124,-0.0106,0.0004,0.0072,0.0154,0.0237,0.0259,0.0305,0.0328,0.032,0.0316,0.0345,0.0343,0.0358,0.0358,0.0357,0.0357,0,-0.0209,-0.0209,-0.0226,-0.0231,-0.0238,-0.0254,-0.0269,-0.0275,-0.0254,-0.0247,-0.0236,-0.0162,-0.0079,0.0027,0.0156,0.0215,0.0306,0.0338,0.0299,0.032,0.0337,0.0333,0.0378,0.0377,0.0377,0.0377,0.0377,0,-0.0224,-0.0233,-0.0248,-0.0266,-0.0273,-0.0293,-0.0314,-0.0306,-0.031,-0.0283,-0.0282,-0.0205,-0.0143,0.001,0.0125,0.0275,0.0303,0.0344,0.0357,0.0323,0.0341,0.0337,0.0332,0.0376,0.0376,0.0376,0.0376,0,-0.0251,-0.0256,-0.0271,-0.0299,-0.0326,-0.035,-0.0371,-0.0379,-0.037,-0.0356,-0.0314,-0.0226,-0.0134,-0.0002,0.011,0.0223,0.031,0.0341,0.0343,0.0356,0.0321,0.0338,0.0335,0.0374,0.0375,0.0375,0.0375,0,-0.0278,-0.0296,-0.0313,-0.0336,-0.0371,-0.0392,-0.0398,-0.04,-0.0399,-0.0366,-0.0354,-0.0246,-0.018,-0.0029,0.0075,0.0176,0.0212,0.0247,0.0255,0.0258,0.0208,0.0145,0.0159,0,0,0,0,0,-0.0304,-0.0323,-0.0348,-0.0371,-0.04,-0.041,-0.0434,-0.0433,-0.0425,-0.0402,-0.0376,-0.0286,-0.0133,-0.0061,0.0038,0.0074,0.0227,0.0191,0.0272,0.0367,0.0369,0.0329,0,0,0,0,0,0,-0.0325,-0.0356,-0.0353,-0.0387,-0.0404,-0.0433,-0.0445,-0.044,-0.0416,-0.0397,-0.031,-0.0269,-0.0112,-0.0187,0.0039,0.0069,0.0131,0.0266,0.0268,0.0367,0.0368,0.0369,0.0328,0,0,0,0,0]}]]